EN

Hourly Weather Aberlour

Today, 19 June, Saturday

Time Temperature Precipitation Wind Pressure Humidity
00:00 +8°C° 0 mm 2 mps 746 mmHg 84%
01:00 +7°C° 0 mm 2 mps 746 mmHg 86%
02:00 +7°C° 0 mm 2 mps 746 mmHg 88%
03:00 +6°C° 0 mm 2 mps 746 mmHg 90%
04:00 +7°C° 0 mm 2 mps 746 mmHg 87%
05:00 +8°C° 0 mm 2 mps 745 mmHg 83%
06:00 +9°C° 0 mm 2 mps 745 mmHg 80%
07:00 +12°C° 0 mm 2 mps 745 mmHg 75%
08:00 +13°C° 0 mm 2 mps 745 mmHg 70%
09:00 +14°C° 0 mm 2 mps 745 mmHg 64%
10:00 +14°C° 0.1 mm 3 mps 744 mmHg 66%
11:00 +14°C° 0.1 mm 3 mps 744 mmHg 67%
12:00 +14°C° 0.1 mm 4 mps 744 mmHg 68%
13:00 +14°C° 0.2 mm 3 mps 744 mmHg 71%
14:00 +13°C° 0.2 mm 3 mps 744 mmHg 74%
15:00 +14°C° 0.2 mm 2 mps 744 mmHg 78%
16:00 +13°C° 0.1 mm 3 mps 744 mmHg 78%
17:00 +13°C° 0.1 mm 3 mps 744 mmHg 79%
18:00 +13°C° 0.1 mm 3 mps 744 mmHg 80%
19:00 +12°C° 0 mm 3 mps 744 mmHg 83%
20:00 +11°C° 0 mm 3 mps 744 mmHg 87%
21:00 +11°C° 0 mm 3 mps 744 mmHg 91%
22:00 +10°C° 0 mm 3 mps 744 mmHg 92%
23:00 +10°C° 0 mm 3 mps 744 mmHg 94%

Tomorrow, 20 June, Sunday

Time Temperature Precipitation Wind Pressure Humidity
00:00 +9°C° 0 mm 3 mps 744 mmHg 95%
01:00 +9°C° 0 mm 2 mps 743 mmHg 96%
02:00 +9°C° 0 mm 2 mps 743 mmHg 96%
03:00 +9°C° 0 mm 2 mps 743 mmHg 96%
04:00 +9°C° 0.2 mm 2 mps 743 mmHg 95%
05:00 +10°C° 0.2 mm 2 mps 743 mmHg 94%
06:00 +10°C° 0.2 mm 2 mps 743 mmHg 93%
07:00 +12°C° 0.2 mm 1 mps 743 mmHg 92%
08:00 +12°C° 0.2 mm 1 mps 743 mmHg 91%
09:00 +12°C° 0.2 mm 1 mps 743 mmHg 90%
10:00 +13°C° 0.2 mm 1 mps 743 mmHg 88%
11:00 +13°C° 0.2 mm 1 mps 742 mmHg 87%
12:00 +13°C° 0.2 mm 1 mps 742 mmHg 85%
13:00 +14°C° 0.2 mm 2 mps 742 mmHg 85%
14:00 +14°C° 0.2 mm 2 mps 742 mmHg 85%
15:00 +14°C° 0.2 mm 2 mps 742 mmHg 85%
16:00 +13°C° 0.3 mm 2 mps 742 mmHg 88%
17:00 +13°C° 0.3 mm 2 mps 742 mmHg 91%
18:00 +12°C° 0.3 mm 1 mps 743 mmHg 93%
19:00 +12°C° 0.2 mm 2 mps 743 mmHg 94%
20:00 +10°C° 0.2 mm 2 mps 743 mmHg 94%
21:00 +10°C° 0.2 mm 2 mps 744 mmHg 95%
22:00 +10°C° 0.1 mm 2 mps 744 mmHg 95%
23:00 +9°C° 0.1 mm 3 mps 744 mmHg 95%

Day after tomorrow, 21 June, Monday

Time Temperature Precipitation Wind Pressure Humidity
00:00 +9°C° 0.1 mm 3 mps 744 mmHg 95%
01:00 +9°C° 0.1 mm 3 mps 744 mmHg 95%
02:00 +8°C° 0.1 mm 3 mps 745 mmHg 95%
03:00 +8°C° 0.1 mm 3 mps 745 mmHg 94%
04:00 +7°C° 0.1 mm 4 mps 745 mmHg 93%
05:00 +7°C° 0.1 mm 4 mps 746 mmHg 92%
06:00 +7°C° 0.1 mm 4 mps 746 mmHg 91%
07:00 +7°C° 0.1 mm 4 mps 746 mmHg 86%
08:00 +8°C° 0.1 mm 4 mps 747 mmHg 81%
09:00 +8°C° 0.1 mm 4 mps 747 mmHg 75%
10:00 +10°C° 0 mm 4 mps 747 mmHg 68%
11:00 +11°C° 0 mm 3 mps 748 mmHg 61%
12:00 +12°C° 0 mm 3 mps 748 mmHg 54%
13:00 +13°C° 0 mm 4 mps 748 mmHg 54%
14:00 +13°C° 0 mm 4 mps 748 mmHg 53%
15:00 +13°C° 0 mm 4 mps 749 mmHg 53%
16:00 +13°C° 0 mm 4 mps 749 mmHg 55%
17:00 +12°C° 0 mm 4 mps 749 mmHg 58%
18:00 +12°C° 0 mm 4 mps 749 mmHg 60%
19:00 +10°C° 0 mm 3 mps 750 mmHg 70%
20:00 +8°C° 0 mm 3 mps 750 mmHg 79%
21:00 +6°C° 0 mm 2 mps 750 mmHg 88%
22:00 +6°C° 0 mm 2 mps 750 mmHg 89%
23:00 +5°C° 0 mm 2 mps 751 mmHg 90%

22 June, Tuesday

Time Temperature Precipitation Wind Pressure Humidity
00:00 +5°C° 0 mm 1 mps 751 mmHg 92%
01:00 +5°C° 0 mm 1 mps 751 mmHg 92%
02:00 +5°C° 0 mm 1 mps 751 mmHg 93%
03:00 +5°C° 0 mm 1 mps 751 mmHg 93%
04:00 +6°C° 0 mm 1 mps 751 mmHg 89%
05:00 +7°C° 0 mm 1 mps 751 mmHg 84%
06:00 +9°C° 0 mm 1 mps 751 mmHg 79%
07:00 +9°C° 0 mm 2 mps 751 mmHg 70%
08:00 +12°C° 0 mm 2 mps 750 mmHg 61%
09:00 +14°C° 0 mm 2 mps 750 mmHg 52%
10:00 +15°C° 0 mm 2 mps 750 mmHg 48%
11:00 +16°C° 0 mm 2 mps 750 mmHg 44%
12:00 +16°C° 0 mm 2 mps 750 mmHg 40%
13:00 +17°C° 0 mm 2 mps 750 mmHg 40%
14:00 +17°C° 0 mm 2 mps 750 mmHg 39%
15:00 +18°C° 0 mm 3 mps 750 mmHg 38%
16:00 +17°C° 0 mm 3 mps 750 mmHg 43%
17:00 +16°C° 0 mm 3 mps 750 mmHg 48%
18:00 +16°C° 0 mm 3 mps 750 mmHg 52%
19:00 +14°C° 0 mm 2 mps 750 mmHg 63%
20:00 +12°C° 0 mm 2 mps 750 mmHg 73%
21:00 +10°C° 0 mm 1 mps 750 mmHg 84%
22:00 +10°C° 0 mm 1 mps 750 mmHg 85%
23:00 +10°C° 0 mm 1 mps 750 mmHg 85%

23 June, Wednesday

Time Temperature Precipitation Wind Pressure Humidity
00:00 +9°C° 0 mm 1 mps 751 mmHg 86%
01:00 +9°C° 0 mm 1 mps 750 mmHg 87%
02:00 +8°C° 0 mm 2 mps 750 mmHg 88%
03:00 +8°C° 0 mm 2 mps 750 mmHg 89%
04:00 +9°C° 0 mm 2 mps 750 mmHg 84%
05:00 +12°C° 0 mm 1 mps 750 mmHg 80%
06:00 +13°C° 0 mm 1 mps 750 mmHg 75%
07:00 +14°C° 0 mm 1 mps 750 mmHg 69%
08:00 +16°C° 0 mm 1 mps 750 mmHg 63%
09:00 +18°C° 0 mm 1 mps 750 mmHg 57%
10:00 +17°C° 0 mm 2 mps 750 mmHg 57%
11:00 +17°C° 0 mm 2 mps 750 mmHg 58%
12:00 +17°C° 0 mm 2 mps 750 mmHg 58%
13:00 +17°C° 0 mm 2 mps 750 mmHg 58%
14:00 +18°C° 0 mm 2 mps 749 mmHg 59%
15:00 +19°C° 0 mm 2 mps 749 mmHg 59%
16:00 +18°C° 0 mm 2 mps 749 mmHg 64%
17:00 +18°C° 0 mm 1 mps 749 mmHg 70%
18:00 +16°C° 0 mm 1 mps 749 mmHg 76%
19:00 +16°C° 0 mm 1 mps 749 mmHg 78%
20:00 +15°C° 0 mm 1 mps 749 mmHg 81%
21:00 +15°C° 0 mm 1 mps 749 mmHg 83%
22:00 +15°C° 0 mm 1 mps 749 mmHg 85%
23:00 +15°C° 0 mm 2 mps 749 mmHg 86%

24 June, Thursday

Time Temperature Precipitation Wind Pressure Humidity
00:00 +14°C° 0 mm 2 mps 748 mmHg 88%
01:00 +14°C° 0.1 mm 2 mps 748 mmHg 89%
02:00 +14°C° 0.1 mm 2 mps 748 mmHg 91%
03:00 +14°C° 0.1 mm 2 mps 748 mmHg 92%
04:00 +14°C° 0.2 mm 2 mps 748 mmHg 93%
05:00 +14°C° 0.2 mm 2 mps 748 mmHg 94%
06:00 +14°C° 0.2 mm 2 mps 747 mmHg 94%
07:00 +15°C° 0.1 mm 2 mps 747 mmHg 94%
08:00 +15°C° 0.1 mm 2 mps 747 mmHg 94%
09:00 +16°C° 0.1 mm 2 mps 747 mmHg 93%
10:00 +16°C° 0.2 mm 2 mps 747 mmHg 93%
11:00 +16°C° 0.2 mm 2 mps 746 mmHg 93%
12:00 +16°C° 0.2 mm 2 mps 746 mmHg 92%
13:00 +16°C° 0.3 mm 2 mps 746 mmHg 92%
14:00 +16°C° 0.3 mm 2 mps 745 mmHg 91%
15:00 +16°C° 0.3 mm 2 mps 745 mmHg 91%
16:00 +16°C° 0.2 mm 2 mps 745 mmHg 91%
17:00 +15°C° 0.2 mm 2 mps 745 mmHg 92%
18:00 +15°C° 0.2 mm 2 mps 745 mmHg 92%
19:00 +15°C° 0.5 mm 2 mps 744 mmHg 94%
20:00 +14°C° 0.5 mm 1 mps 744 mmHg 95%
21:00 +14°C° 0.5 mm 1 mps 744 mmHg 97%
22:00 +14°C° 1.3 mm 1 mps 744 mmHg 97%
23:00 +14°C° 1.3 mm 1 mps 744 mmHg 98%
Show more